TimeCDT,TemperatureF,Dew PointF,Humidity,Sea Level PressureIn,VisibilityMPH,Wind Direction,Wind SpeedMPH,Gust SpeedMPH,PrecipitationIn,Events,Conditions,WindDirDegrees,DateUTC
12:15 AM,82.4,54.5,38,29.93,10.0,SE,8.1,-,N/A,,Clear,130,2013-09-01 05:15:00
12:35 AM,82.0,55.2,40,29.93,10.0,SE,8.1,-,N/A,,Clear,140,2013-09-01 05:35:00
12:55 AM,81.5,55.8,41,29.93,10.0,SE,9.2,-,N/A,,Clear,140,2013-09-01 05:55:00
1:15 AM,80.8,55.9,42,29.93,10.0,SE,8.1,-,N/A,,Clear,140,2013-09-01 06:15:00
1:35 AM,80.2,56.3,44,29.94,10.0,SE,6.9,-,N/A,,Clear,140,2013-09-01 06:35:00
1:55 AM,79.7,56.5,45,29.94,10.0,SSE,8.1,-,N/A,,Clear,150,2013-09-01 06:55:00
2:15 AM,79.9,56.8,45,29.94,10.0,SSE,5.8,-,N/A,,Clear,160,2013-09-01 07:15:00
2:35 AM,78.6,57.0,47,29.95,10.0,South,4.6,-,N/A,,Clear,190,2013-09-01 07:35:00
2:55 AM,77.0,57.2,50,29.95,10.0,SW,4.6,-,N/A,,Clear,230,2013-09-01 07:55:00
3:15 AM,75.7,57.0,52,29.95,10.0,SSW,4.6,-,N/A,,Clear,210,2013-09-01 08:15:00
3:35 AM,76.6,58.1,53,29.95,10.0,SW,4.6,-,N/A,,Clear,220,2013-09-01 08:35:00
3:55 AM,76.8,58.3,53,29.95,10.0,SSW,5.8,-,N/A,,Clear,210,2013-09-01 08:55:00
4:15 AM,77.0,58.3,52,29.94,10.0,SSW,6.9,-,N/A,,Clear,210,2013-09-01 09:15:00
4:35 AM,77.0,58.3,52,29.94,10.0,SSW,6.9,-,N/A,,Clear,210,2013-09-01 09:35:00
4:55 AM,77.0,58.3,52,29.94,10.0,SSW,6.9,-,N/A,,Clear,210,2013-09-01 09:55:00
5:15 AM,75.6,57.7,54,29.94,10.0,South,6.9,-,N/A,,Clear,180,2013-09-01 10:15:00
5:35 AM,74.5,57.4,55,29.95,10.0,SSE,5.8,-,N/A,,Clear,160,2013-09-01 10:35:00
5:55 AM,74.5,58.1,57,29.95,10.0,South,5.8,-,N/A,,Clear,170,2013-09-01 10:55:00
6:15 AM,74.5,58.1,57,29.96,10.0,South,3.5,-,N/A,,Clear,180,2013-09-01 11:15:00
6:35 AM,73.6,58.6,59,29.96,10.0,South,4.6,-,N/A,,Clear,180,2013-09-01 11:35:00
6:55 AM,73.4,58.8,60,29.97,10.0,South,6.9,-,N/A,,Clear,170,2013-09-01 11:55:00
7:15 AM,73.8,59.0,60,29.98,10.0,South,6.9,-,N/A,,Clear,170,2013-09-01 12:15:00
7:35 AM,74.5,59.7,60,29.98,10.0,South,5.8,-,N/A,,Clear,170,2013-09-01 12:35:00
7:55 AM,74.1,59.7,61,29.98,10.0,SSW,3.5,-,N/A,,Clear,200,2013-09-01 12:55:00
8:15 AM,73.0,59.5,62,29.99,10.0,Calm,Calm,-,N/A,,Clear,0,2013-09-01 13:15:00
8:35 AM,75.0,59.7,59,29.99,10.0,Calm,Calm,-,N/A,,Clear,0,2013-09-01 13:35:00
8:55 AM,77.9,59.7,53,29.99,10.0,WSW,4.6,-,N/A,,Clear,240,2013-09-01 13:55:00
9:15 AM,80.2,59.2,48,30.00,10.0,SW,6.9,-,N/A,,Clear,230,2013-09-01 14:15:00
9:35 AM,81.5,59.0,46,30.00,10.0,SW,8.1,-,N/A,,Clear,230,2013-09-01 14:35:00
9:55 AM,82.8,58.8,44,30.01,10.0,SW,10.4,-,N/A,,Clear,230,2013-09-01 14:55:00
10:15 AM,84.4,59.0,42,30.01,10.0,SW,13.8,-,N/A,,Clear,220,2013-09-01 15:15:00
10:35 AM,86.7,60.1,41,30.01,10.0,SW,12.7,-,N/A,,Clear,230,2013-09-01 15:35:00
10:55 AM,88.0,60.4,39,30.02,10.0,SW,10.4,-,N/A,,Clear,230,2013-09-01 15:55:00
11:15 AM,89.6,60.4,37,30.02,10.0,WSW,11.5,-,N/A,,Clear,240,2013-09-01 16:15:00
11:35 AM,89.6,59.2,36,30.02,10.0,WSW,8.1,-,N/A,,Clear,240,2013-09-01 16:35:00
11:55 AM,89.6,58.6,35,30.01,10.0,WSW,8.1,-,N/A,,Clear,240,2013-09-01 16:55:00
12:15 PM,91.0,58.5,33,30.01,10.0,SW,4.6,-,N/A,,Clear,230,2013-09-01 17:15:00
12:35 PM,93.0,58.6,31,30.00,10.0,West,5.8,-,N/A,,Clear,270,2013-09-01 17:35:00
12:55 PM,94.3,58.8,30,30.00,10.0,NW,4.6,-,N/A,,Clear,310,2013-09-01 17:55:00
1:15 PM,94.6,57.4,29,29.99,10.0,SE,5.8,-,N/A,,Clear,140,2013-09-01 18:15:00
1:35 PM,94.6,56.8,28,29.99,10.0,East,4.6,-,N/A,,Scattered Clouds,90,2013-09-01 18:35:00
1:55 PM,95.4,55.9,27,29.98,10.0,East,8.1,-,N/A,,Mostly Cloudy,100,2013-09-01 18:55:00
2:15 PM,95.2,54.9,26,29.98,10.0,Calm,Calm,-,N/A,,Scattered Clouds,0,2013-09-01 19:15:00
2:35 PM,94.6,54.3,26,29.97,10.0,NE,5.8,-,N/A,,Clear,40,2013-09-01 19:35:00
2:55 PM,95.4,54.7,25,29.95,10.0,SE,9.2,-,N/A,,Clear,130,2013-09-01 19:55:00
3:15 PM,97.2,54.9,24,29.95,10.0,East,3.5,-,N/A,,Scattered Clouds,90,2013-09-01 20:15:00
3:35 PM,97.2,54.5,24,29.95,10.0,ENE,8.1,-,N/A,,Scattered Clouds,70,2013-09-01 20:35:00
3:55 PM,97.2,53.6,23,29.94,10.0,ESE,5.8,18.4,N/A,,Scattered Clouds,120,2013-09-01 20:55:00
4:15 PM,97.3,54.1,23,29.94,10.0,ESE,6.9,-,N/A,,Scattered Clouds,120,2013-09-01 21:15:00
4:35 PM,97.7,54.0,23,29.93,10.0,Calm,Calm,-,N/A,,Scattered Clouds,0,2013-09-01 21:35:00
4:55 PM,98.1,54.7,23,29.93,10.0,SE,12.7,16.1,N/A,,Scattered Clouds,140,2013-09-01 21:55:00
5:15 PM,97.2,54.5,24,29.93,10.0,South,4.6,-,N/A,,Scattered Clouds,190,2013-09-01 22:15:00
5:35 PM,97.2,54.3,24,29.91,10.0,Calm,Calm,-,N/A,,Clear,0,2013-09-01 22:35:00
5:55 PM,97.2,53.8,23,29.91,10.0,ESE,3.5,-,N/A,,Clear,110,2013-09-01 22:55:00
6:15 PM,97.2,53.8,23,29.91,10.0,Calm,Calm,-,N/A,,Clear,0,2013-09-01 23:15:00
6:35 PM,97.2,53.6,23,29.91,10.0,SSE,4.6,-,N/A,,Clear,160,2013-09-01 23:35:00
6:55 PM,97.2,53.8,23,29.91,10.0,ESE,3.5,-,N/A,,Clear,110,2013-09-01 23:55:00
7:15 PM,97.2,54.0,23,29.91,10.0,East,4.6,-,N/A,,Clear,80,2013-09-02 00:15:00
7:35 PM,97.0,54.0,23,29.92,10.0,East,4.6,-,N/A,,Clear,100,2013-09-02 00:35:00
7:55 PM,95.2,53.1,24,29.93,10.0,Calm,Calm,-,N/A,,Clear,0,2013-09-02 00:55:00
8:15 PM,94.6,53.2,25,29.93,10.0,Calm,Calm,-,N/A,,Mostly Cloudy,0,2013-09-02 01:15:00
8:35 PM,93.9,54.5,26,29.94,10.0,North,8.1,17.3,N/A,,Mostly Cloudy,350,2013-09-02 01:35:00
8:55 PM,90.3,55.6,31,29.94,10.0,NNW,10.4,-,N/A,,Scattered Clouds,340,2013-09-02 01:55:00
9:15 PM,89.6,55.9,32,29.95,10.0,North,9.2,-,N/A,,Clear,350,2013-09-02 02:15:00
9:35 PM,89.6,57.2,33,29.96,10.0,North,8.1,-,N/A,,Clear,360,2013-09-02 02:35:00
9:55 PM,89.6,57.6,34,29.97,10.0,North,5.8,-,N/A,,Clear,350,2013-09-02 02:55:00
10:15 PM,89.6,57.7,34,29.97,10.0,North,5.8,-,N/A,,Clear,350,2013-09-02 03:15:00
10:35 PM,89.6,58.6,35,29.98,10.0,North,5.8,-,N/A,,Clear,360,2013-09-02 03:35:00
10:55 PM,89.1,58.6,36,29.98,10.0,North,6.9,-,N/A,,Scattered Clouds,350,2013-09-02 03:55:00
11:15 PM,88.3,58.6,37,29.98,10.0,North,6.9,-,N/A,,Scattered Clouds,360,2013-09-02 04:15:00
11:35 PM,89.6,59.7,36,29.98,10.0,North,9.2,-,N/A,,Clear,360,2013-09-02 04:35:00
11:55 PM,89.6,62.2,40,29.98,10.0,North,9.2,-,N/A,,Mostly Cloudy,360,2013-09-02 04:55:00